Year,Month,Day,Hour,Minute,Value (Times are PST for temperature in C)
2008,09,04,00,00,14.20
2008,09,04,00,01,14.20
2008,09,04,00,02,14.20
2008,09,04,00,03,14.20
2008,09,04,00,04,14.20
2008,09,04,00,05,14.20
2008,09,04,00,06,14.10
2008,09,04,00,07,14.10
2008,09,04,00,08,14.10
2008,09,04,00,09,14.20
2008,09,04,00,10,14.20
2008,09,04,00,11,14.20
2008,09,04,00,12,14.20
2008,09,04,00,13,14.20
2008,09,04,00,14,14.20
2008,09,04,00,15,14.20
2008,09,04,00,16,14.20
2008,09,04,00,17,14.30
2008,09,04,00,18,14.30
2008,09,04,00,19,14.30
2008,09,04,00,20,14.30
2008,09,04,00,21,14.30
2008,09,04,00,22,14.30
2008,09,04,00,23,14.30
2008,09,04,00,24,14.30
2008,09,04,00,25,14.30
2008,09,04,00,26,14.20
2008,09,04,00,27,14.20
2008,09,04,00,28,14.20
2008,09,04,00,29,14.10
2008,09,04,00,30,14.10
2008,09,04,00,31,14.10
2008,09,04,00,32,14.10
2008,09,04,00,33,14.00
2008,09,04,00,34,14.00
2008,09,04,00,35,14.00
2008,09,04,00,36,14.00
2008,09,04,00,37,13.90
2008,09,04,00,38,13.90
2008,09,04,00,39,13.90
2008,09,04,00,40,13.90
2008,09,04,00,41,13.90
2008,09,04,00,42,13.80
2008,09,04,00,43,13.80
2008,09,04,00,44,13.80
2008,09,04,00,45,13.80
2008,09,04,00,46,13.70
2008,09,04,00,47,13.70
2008,09,04,00,48,13.70
2008,09,04,00,49,13.70
2008,09,04,00,50,13.70
2008,09,04,00,51,13.70
2008,09,04,00,52,13.70
2008,09,04,00,53,13.70
2008,09,04,00,54,13.60
2008,09,04,00,55,13.60
2008,09,04,00,56,13.60
2008,09,04,00,57,13.60
2008,09,04,00,58,13.60
2008,09,04,00,59,13.50
2008,09,04,01,00,13.50
2008,09,04,01,01,13.40
2008,09,04,01,02,13.40
2008,09,04,01,03,13.30
2008,09,04,01,04,13.30
2008,09,04,01,05,13.20
2008,09,04,01,06,13.20
2008,09,04,01,07,13.20
2008,09,04,01,08,13.20
2008,09,04,01,09,13.10
2008,09,04,01,10,13.10
2008,09,04,01,11,13.10
2008,09,04,01,12,13.10
2008,09,04,01,13,13.10
2008,09,04,01,14,13.00
2008,09,04,01,15,13.00
2008,09,04,01,16,13.00
2008,09,04,01,17,13.00
2008,09,04,01,18,13.10
2008,09,04,01,19,13.10
2008,09,04,01,20,13.10
2008,09,04,01,21,13.10
2008,09,04,01,22,13.10
2008,09,04,01,23,13.10
2008,09,04,01,24,13.10
2008,09,04,01,25,13.10
2008,09,04,01,26,13.10
2008,09,04,01,27,13.00
2008,09,04,01,28,13.00
2008,09,04,01,29,13.00
2008,09,04,01,30,13.00
2008,09,04,01,31,13.00
2008,09,04,01,32,13.00
2008,09,04,01,33,13.00
2008,09,04,01,34,13.10
2008,09,04,01,35,13.10
2008,09,04,01,36,13.10
2008,09,04,01,37,13.10
2008,09,04,01,38,13.10
2008,09,04,01,39,13.10
2008,09,04,01,40,13.10
2008,09,04,01,41,13.10
2008,09,04,01,42,13.10
2008,09,04,01,43,13.10
2008,09,04,01,44,13.10
2008,09,04,01,45,13.00
2008,09,04,01,46,13.00
2008,09,04,01,47,13.00
2008,09,04,01,48,12.90
2008,09,04,01,49,12.90
2008,09,04,01,50,12.80
2008,09,04,01,51,12.80
2008,09,04,01,52,12.80
2008,09,04,01,53,12.70
2008,09,04,01,54,12.70
2008,09,04,01,55,12.70
2008,09,04,01,56,12.60
2008,09,04,01,57,12.60
2008,09,04,01,58,12.60
2008,09,04,01,59,12.60
2008,09,04,02,00,12.50
2008,09,04,02,01,12.50
2008,09,04,02,02,12.50
2008,09,04,02,03,12.50
2008,09,04,02,04,12.50
2008,09,04,02,05,12.50
2008,09,04,02,06,12.60
2008,09,04,02,07,12.60
2008,09,04,02,08,12.60
2008,09,04,02,09,12.70
2008,09,04,02,10,12.70
2008,09,04,02,11,12.70
2008,09,04,02,12,12.80
2008,09,04,02,13,12.80
2008,09,04,02,14,12.80
2008,09,04,02,15,12.90
2008,09,04,02,16,12.90
2008,09,04,02,17,12.90
2008,09,04,02,18,13.00
2008,09,04,02,19,13.00
2008,09,04,02,20,13.00
2008,09,04,02,21,13.10
2008,09,04,02,22,13.10
2008,09,04,02,23,13.10
2008,09,04,02,24,13.10
2008,09,04,02,25,13.10
2008,09,04,02,26,13.10
2008,09,04,02,27,13.10
2008,09,04,02,28,13.10
2008,09,04,02,29,13.10
2008,09,04,02,30,13.10
2008,09,04,02,31,13.10
2008,09,04,02,32,13.10
2008,09,04,02,33,13.10
2008,09,04,02,34,13.10
2008,09,04,02,35,13.10
2008,09,04,02,36,13.10
2008,09,04,02,37,13.10
2008,09,04,02,38,13.10
2008,09,04,02,39,13.10
2008,09,04,02,40,13.10
2008,09,04,02,41,13.10
2008,09,04,02,42,13.10
2008,09,04,02,43,13.10
2008,09,04,02,44,13.20
2008,09,04,02,45,13.20
2008,09,04,02,46,13.20
2008,09,04,02,47,13.20
2008,09,04,02,48,13.20
2008,09,04,02,49,13.20
2008,09,04,02,50,13.20
2008,09,04,02,51,13.20
2008,09,04,02,52,13.20
2008,09,04,02,53,13.10
2008,09,04,02,54,13.20
2008,09,04,02,55,13.20
2008,09,04,02,56,13.20
2008,09,04,02,57,13.20
2008,09,04,02,58,13.20
2008,09,04,02,59,13.20
2008,09,04,03,00,13.20
2008,09,04,03,01,13.20
2008,09,04,03,02,13.10
2008,09,04,03,03,13.10
2008,09,04,03,04,13.10
2008,09,04,03,05,13.10
2008,09,04,03,06,13.10
2008,09,04,03,07,13.10
2008,09,04,03,08,13.10
2008,09,04,03,09,13.10
2008,09,04,03,10,13.10
2008,09,04,03,11,13.10
2008,09,04,03,12,13.10
2008,09,04,03,13,13.10
2008,09,04,03,14,13.10
2008,09,04,03,15,13.10
2008,09,04,03,16,13.10
2008,09,04,03,17,13.10
2008,09,04,03,18,13.10
2008,09,04,03,19,13.10
2008,09,04,03,20,13.10
2008,09,04,03,21,13.10
2008,09,04,03,22,13.10
2008,09,04,03,23,13.20
2008,09,04,03,24,13.20
2008,09,04,03,25,13.20
2008,09,04,03,26,13.20
2008,09,04,03,27,13.20
2008,09,04,03,28,13.30
2008,09,04,03,29,13.30
2008,09,04,03,30,13.30
2008,09,04,03,31,13.30
2008,09,04,03,32,13.30
2008,09,04,03,33,13.30
2008,09,04,03,34,13.30
2008,09,04,03,35,13.30
2008,09,04,03,36,13.30
2008,09,04,03,37,13.30
2008,09,04,03,38,13.30
2008,09,04,03,39,13.30
2008,09,04,03,40,13.30
2008,09,04,03,41,13.30
2008,09,04,03,42,13.30
2008,09,04,03,43,13.30
2008,09,04,03,44,13.30
2008,09,04,03,45,13.30
2008,09,04,03,46,13.30
2008,09,04,03,47,13.30
2008,09,04,03,48,13.30
2008,09,04,03,49,13.30
2008,09,04,03,50,13.30
2008,09,04,03,51,13.30
2008,09,04,03,52,13.30
2008,09,04,03,53,13.30
2008,09,04,03,54,13.30
2008,09,04,03,55,13.30
2008,09,04,03,56,13.30
2008,09,04,03,57,13.30
2008,09,04,03,58,13.30
2008,09,04,03,59,13.30
2008,09,04,04,00,13.30
2008,09,04,04,01,13.30
2008,09,04,04,02,13.30
2008,09,04,04,03,13.30
2008,09,04,04,04,13.30
2008,09,04,04,05,13.30
2008,09,04,04,06,13.30
2008,09,04,04,07,13.30
2008,09,04,04,08,13.30
2008,09,04,04,09,13.20
2008,09,04,04,10,13.20
2008,09,04,04,11,13.20
2008,09,04,04,12,13.20
2008,09,04,04,13,13.20
2008,09,04,04,14,13.20
2008,09,04,04,15,13.20
2008,09,04,04,16,13.20
2008,09,04,04,17,13.20
2008,09,04,04,18,13.20
2008,09,04,04,19,13.20
2008,09,04,04,20,13.20
2008,09,04,04,21,13.20
2008,09,04,04,22,13.20
2008,09,04,04,23,13.20
2008,09,04,04,24,13.20
2008,09,04,04,25,13.20
2008,09,04,04,26,13.20
2008,09,04,04,27,13.20
2008,09,04,04,28,13.10
2008,09,04,04,29,13.10
2008,09,04,04,30,13.10
2008,09,04,04,31,13.10
2008,09,04,04,32,13.10
2008,09,04,04,33,13.10
2008,09,04,04,34,13.10
2008,09,04,04,35,13.00
2008,09,04,04,36,13.00
2008,09,04,04,37,13.00
2008,09,04,04,38,13.00
2008,09,04,04,39,13.00
2008,09,04,04,40,12.90
2008,09,04,04,41,12.90
2008,09,04,04,42,12.90
2008,09,04,04,43,12.90
2008,09,04,04,44,12.90
2008,09,04,04,45,12.90
2008,09,04,04,46,12.90
2008,09,04,04,47,12.80
2008,09,04,04,48,12.80
2008,09,04,04,49,12.80
2008,09,04,04,50,12.80
2008,09,04,04,51,12.70
2008,09,04,04,52,12.70
2008,09,04,04,53,12.70
2008,09,04,04,54,12.70
2008,09,04,04,55,12.70
2008,09,04,04,56,12.70
2008,09,04,04,57,12.70
2008,09,04,04,58,12.70
2008,09,04,04,59,12.70
2008,09,04,05,00,12.70
2008,09,04,05,01,12.70
2008,09,04,05,02,12.70
2008,09,04,05,03,12.70
2008,09,04,05,04,12.70
2008,09,04,05,05,12.70
2008,09,04,05,06,12.60
2008,09,04,05,07,12.60
2008,09,04,05,08,12.60
2008,09,04,05,09,12.60
2008,09,04,05,10,12.50
2008,09,04,05,11,12.50
2008,09,04,05,12,12.40
2008,09,04,05,13,12.40
2008,09,04,05,14,12.40
2008,09,04,05,15,12.30
2008,09,04,05,16,12.30
2008,09,04,05,17,12.30
2008,09,04,05,18,12.30
2008,09,04,05,19,12.30
2008,09,04,05,20,12.30
2008,09,04,05,21,12.30
2008,09,04,05,22,12.30
2008,09,04,05,23,12.30
2008,09,04,05,24,12.30
2008,09,04,05,25,12.30
2008,09,04,05,26,12.30
2008,09,04,05,27,12.30
2008,09,04,05,28,12.30
2008,09,04,05,29,12.30
2008,09,04,05,30,12.40
2008,09,04,05,31,12.30
2008,09,04,05,32,12.30
2008,09,04,05,33,12.30
2008,09,04,05,34,12.30
2008,09,04,05,35,12.30
2008,09,04,05,36,12.30
2008,09,04,05,37,12.30
2008,09,04,05,38,12.30
2008,09,04,05,39,12.30
2008,09,04,05,40,12.30
2008,09,04,05,41,12.20
2008,09,04,05,42,12.20
2008,09,04,05,43,12.20
2008,09,04,05,44,12.20
2008,09,04,05,45,12.10
2008,09,04,05,46,12.10
2008,09,04,05,47,12.10
2008,09,04,05,48,12.10
2008,09,04,05,49,12.00
2008,09,04,05,50,12.00
2008,09,04,05,51,12.00
2008,09,04,05,52,12.00
2008,09,04,05,53,12.00
2008,09,04,05,54,12.10
2008,09,04,05,55,12.10
2008,09,04,05,56,12.00
2008,09,04,05,57,12.00
2008,09,04,05,58,12.00
2008,09,04,05,59,12.00
2008,09,04,06,00,12.00
2008,09,04,06,01,12.00
2008,09,04,06,02,12.00
2008,09,04,06,03,12.10
2008,09,04,06,04,12.10
2008,09,04,06,05,12.10
2008,09,04,06,06,12.10
2008,09,04,06,07,12.10
2008,09,04,06,08,12.10
2008,09,04,06,09,12.10
2008,09,04,06,10,12.20
2008,09,04,06,11,12.20
2008,09,04,06,12,12.20
2008,09,04,06,13,12.20
2008,09,04,06,14,12.20
2008,09,04,06,15,12.20
2008,09,04,06,16,12.20
2008,09,04,06,17,12.30
2008,09,04,06,18,12.30
2008,09,04,06,19,12.30
2008,09,04,06,20,12.30
2008,09,04,06,21,12.40
2008,09,04,06,22,12.40
2008,09,04,06,23,12.40
2008,09,04,06,24,12.40
2008,09,04,06,25,12.40
2008,09,04,06,26,12.50
2008,09,04,06,27,12.50
2008,09,04,06,28,12.50
2008,09,04,06,29,12.50
2008,09,04,06,30,12.50
2008,09,04,06,31,12.60
2008,09,04,06,32,12.60
2008,09,04,06,33,12.60
2008,09,04,06,34,12.60
2008,09,04,06,35,12.60
2008,09,04,06,36,12.60
2008,09,04,06,37,12.60
2008,09,04,06,38,12.60
2008,09,04,06,39,12.60
2008,09,04,06,40,12.60
2008,09,04,06,41,12.70
2008,09,04,06,42,12.70
2008,09,04,06,43,12.70
2008,09,04,06,44,12.70
2008,09,04,06,45,12.70
2008,09,04,06,46,12.70
2008,09,04,06,47,12.70
2008,09,04,06,48,12.70
2008,09,04,06,49,12.70
2008,09,04,06,50,12.70
2008,09,04,06,51,12.70
2008,09,04,06,52,12.70
2008,09,04,06,53,12.70
2008,09,04,06,54,12.70
2008,09,04,06,55,12.70
2008,09,04,06,56,12.70
2008,09,04,06,57,12.70
2008,09,04,06,58,12.70
2008,09,04,06,59,12.70
2008,09,04,07,00,12.70
2008,09,04,07,01,12.70
2008,09,04,07,02,12.70
2008,09,04,07,03,12.70
2008,09,04,07,04,12.70
2008,09,04,07,05,12.70
2008,09,04,07,06,12.70
2008,09,04,07,07,12.70
2008,09,04,07,08,12.70
2008,09,04,07,09,12.70
2008,09,04,07,10,12.70
2008,09,04,07,11,12.80
2008,09,04,07,12,12.80
2008,09,04,07,13,12.80
2008,09,04,07,14,12.80
2008,09,04,07,15,12.80
2008,09,04,07,16,12.90
2008,09,04,07,17,12.90
2008,09,04,07,18,12.90
2008,09,04,07,19,12.90
2008,09,04,07,20,12.90
2008,09,04,07,21,12.90
2008,09,04,07,22,12.90
2008,09,04,07,23,12.90
2008,09,04,07,24,12.90
2008,09,04,07,25,12.90
2008,09,04,07,26,12.90
2008,09,04,07,27,12.90
2008,09,04,07,28,12.90
2008,09,04,07,29,12.90
2008,09,04,07,30,12.90
2008,09,04,07,31,12.90
2008,09,04,07,32,13.00
2008,09,04,07,33,13.00
2008,09,04,07,34,13.00
2008,09,04,07,35,13.00
2008,09,04,07,36,13.10
2008,09,04,07,37,13.10
2008,09,04,07,38,13.10
2008,09,04,07,39,13.20
2008,09,04,07,40,13.20
2008,09,04,07,41,13.20
2008,09,04,07,42,13.20
2008,09,04,07,43,13.30
2008,09,04,07,44,13.30
2008,09,04,07,45,13.30
2008,09,04,07,46,13.40
2008,09,04,07,47,13.40
2008,09,04,07,48,13.40
2008,09,04,07,49,13.40
2008,09,04,07,50,13.50
2008,09,04,07,51,13.60
2008,09,04,07,52,13.60
2008,09,04,07,53,13.70
2008,09,04,07,54,13.70
2008,09,04,07,55,13.80
2008,09,04,07,56,13.80
2008,09,04,07,57,13.90
2008,09,04,07,58,14.00
2008,09,04,07,59,14.10
2008,09,04,08,00,14.10
2008,09,04,08,01,14.20
2008,09,04,08,02,14.20
2008,09,04,08,03,14.30
2008,09,04,08,04,14.30
2008,09,04,08,05,14.30
2008,09,04,08,06,14.40
2008,09,04,08,07,14.40
2008,09,04,08,08,14.50
2008,09,04,08,09,14.50
2008,09,04,08,10,14.50
2008,09,04,08,11,14.60
2008,09,04,08,12,14.60
2008,09,04,08,13,14.60
2008,09,04,08,14,14.70
2008,09,04,08,15,14.70
2008,09,04,08,16,14.70
2008,09,04,08,17,14.80
2008,09,04,08,18,14.80
2008,09,04,08,19,14.80
2008,09,04,08,20,14.80
2008,09,04,08,21,14.80
2008,09,04,08,22,14.80
2008,09,04,08,23,14.80
2008,09,04,08,24,14.80
2008,09,04,08,25,14.80
2008,09,04,08,26,14.80
2008,09,04,08,27,14.80
2008,09,04,08,28,14.90
2008,09,04,08,29,14.90
2008,09,04,08,30,14.90
2008,09,04,08,31,15.00
2008,09,04,08,32,15.00
2008,09,04,08,33,15.00
2008,09,04,08,34,15.00
2008,09,04,08,35,15.00
2008,09,04,08,36,15.00
2008,09,04,08,37,15.00
2008,09,04,08,38,15.00
2008,09,04,08,39,15.00
2008,09,04,08,40,15.10
2008,09,04,08,41,15.10
2008,09,04,08,42,15.10
2008,09,04,08,43,15.20
2008,09,04,08,44,15.20
2008,09,04,08,45,15.30
2008,09,04,08,46,15.30
2008,09,04,08,47,15.40
2008,09,04,08,48,15.40
2008,09,04,08,49,15.30
2008,09,04,08,50,15.30
2008,09,04,08,51,15.30
2008,09,04,08,52,15.30
2008,09,04,08,53,15.30
2008,09,04,08,54,15.30
2008,09,04,08,55,15.30
2008,09,04,08,56,15.30
2008,09,04,08,57,15.30
2008,09,04,08,58,15.40
2008,09,04,08,59,15.40
2008,09,04,09,00,15.40
2008,09,04,09,01,15.40
2008,09,04,09,02,15.40
2008,09,04,09,03,15.40
2008,09,04,09,04,15.40
2008,09,04,09,05,15.40
2008,09,04,09,06,15.50
2008,09,04,09,07,15.50
2008,09,04,09,08,15.60
2008,09,04,09,09,15.60
2008,09,04,09,10,15.60
2008,09,04,09,11,15.70
2008,09,04,09,12,15.70
2008,09,04,09,13,15.80
2008,09,04,09,14,15.80
2008,09,04,09,15,15.80
2008,09,04,09,16,15.90
2008,09,04,09,17,15.90
2008,09,04,09,18,16.00
2008,09,04,09,19,16.00
2008,09,04,09,20,16.00
2008,09,04,09,21,16.10
2008,09,04,09,22,16.10
2008,09,04,09,23,16.10
2008,09,04,09,24,16.00
2008,09,04,09,25,16.00
2008,09,04,09,26,16.00
2008,09,04,09,27,16.00
2008,09,04,09,28,16.00
2008,09,04,09,29,16.00
2008,09,04,09,30,15.90
2008,09,04,09,31,15.90
2008,09,04,09,32,15.80
2008,09,04,09,33,15.70
2008,09,04,09,34,15.80
2008,09,04,09,35,15.80
2008,09,04,09,36,15.80
2008,09,04,09,37,15.80
2008,09,04,09,38,15.80
2008,09,04,09,39,15.90
2008,09,04,09,40,15.90
2008,09,04,09,41,16.00
2008,09,04,09,42,16.10
2008,09,04,09,43,16.10
2008,09,04,09,44,16.10
2008,09,04,09,45,16.20
2008,09,04,09,46,16.20
2008,09,04,09,47,16.30
2008,09,04,09,48,16.30
2008,09,04,09,49,16.30
2008,09,04,09,50,16.20
2008,09,04,09,51,16.20
2008,09,04,09,52,16.30
2008,09,04,09,53,16.30
2008,09,04,09,54,16.30
2008,09,04,09,55,16.40
2008,09,04,09,56,16.40
2008,09,04,09,57,16.40
2008,09,04,09,58,16.30
2008,09,04,09,59,16.40
2008,09,04,10,00,16.40
2008,09,04,10,01,16.40
2008,09,04,10,02,16.40
2008,09,04,10,03,16.40
2008,09,04,10,04,16.50
2008,09,04,10,05,16.50
2008,09,04,10,06,16.50
2008,09,04,10,07,16.60
2008,09,04,10,08,16.60
2008,09,04,10,09,16.60
2008,09,04,10,10,16.60
2008,09,04,10,11,16.60
2008,09,04,10,12,16.60
2008,09,04,10,13,16.60
2008,09,04,10,14,16.60
2008,09,04,10,15,16.60
2008,09,04,10,16,16.60
2008,09,04,10,17,16.50
2008,09,04,10,18,16.40
2008,09,04,10,19,16.40
2008,09,04,10,20,16.30
2008,09,04,10,21,16.40
2008,09,04,10,22,16.40
2008,09,04,10,23,16.40
2008,09,04,10,24,16.40
2008,09,04,10,25,16.40
2008,09,04,10,26,16.40
2008,09,04,10,27,16.50
2008,09,04,10,28,16.60
2008,09,04,10,29,16.80
2008,09,04,10,30,16.80
2008,09,04,10,31,16.80
2008,09,04,10,32,16.80
2008,09,04,10,33,16.80
2008,09,04,10,34,16.80
2008,09,04,10,35,16.80
2008,09,04,10,36,16.80
2008,09,04,10,37,16.80
2008,09,04,10,38,16.80
2008,09,04,10,39,16.80
2008,09,04,10,40,16.90
2008,09,04,10,41,16.90
2008,09,04,10,42,16.90
2008,09,04,10,43,16.90
2008,09,04,10,44,16.90
2008,09,04,10,45,16.90
2008,09,04,10,46,16.90
2008,09,04,10,47,16.90
2008,09,04,10,48,17.00
2008,09,04,10,49,16.90
2008,09,04,10,50,16.90
2008,09,04,10,51,16.90
2008,09,04,10,52,16.90
2008,09,04,10,53,17.00
2008,09,04,10,54,17.00
2008,09,04,10,55,17.10
2008,09,04,10,56,17.10
2008,09,04,10,57,17.20
2008,09,04,10,58,17.30
2008,09,04,10,59,17.30
2008,09,04,11,00,17.40
2008,09,04,11,01,17.50
2008,09,04,11,02,17.70
2008,09,04,11,03,17.80
2008,09,04,11,04,17.90
2008,09,04,11,05,17.90
2008,09,04,11,06,18.00
2008,09,04,11,07,18.10
2008,09,04,11,08,18.20
2008,09,04,11,09,18.20
2008,09,04,11,10,18.10
2008,09,04,11,11,18.00
2008,09,04,11,12,17.90
2008,09,04,11,13,17.80
2008,09,04,11,14,17.80
2008,09,04,11,15,17.70
2008,09,04,11,16,17.70
2008,09,04,11,17,17.70
2008,09,04,11,18,17.70
2008,09,04,11,19,17.80
2008,09,04,11,20,17.80
2008,09,04,11,21,17.80
2008,09,04,11,22,17.80
2008,09,04,11,23,17.90
2008,09,04,11,24,17.90
2008,09,04,11,25,18.00
2008,09,04,11,26,18.10
2008,09,04,11,27,18.10
2008,09,04,11,28,18.10
2008,09,04,11,29,18.20
2008,09,04,11,30,18.30
2008,09,04,11,31,18.30
2008,09,04,11,32,18.20
2008,09,04,11,33,18.20
2008,09,04,11,34,18.20
2008,09,04,11,35,18.20
2008,09,04,11,36,18.20
2008,09,04,11,37,18.20
2008,09,04,11,38,18.30
2008,09,04,11,39,18.30
2008,09,04,11,40,18.30
2008,09,04,11,41,18.40
2008,09,04,11,42,18.30
2008,09,04,11,43,18.40
2008,09,04,11,44,18.40
2008,09,04,11,45,18.40
2008,09,04,11,46,18.50
2008,09,04,11,47,18.50
2008,09,04,11,48,18.60
2008,09,04,11,49,18.60
2008,09,04,11,50,18.50
2008,09,04,11,51,18.40
2008,09,04,11,52,18.30
2008,09,04,11,53,18.20
2008,09,04,11,54,18.20
2008,09,04,11,55,18.20
2008,09,04,11,56,18.10
2008,09,04,11,57,18.00
2008,09,04,11,58,18.00
2008,09,04,11,59,17.90
2008,09,04,12,00,17.80
2008,09,04,12,01,17.70
2008,09,04,12,02,17.60
2008,09,04,12,03,17.50
2008,09,04,12,04,17.40
2008,09,04,12,05,17.40
2008,09,04,12,06,17.30
2008,09,04,12,07,17.30
2008,09,04,12,08,17.30
2008,09,04,12,09,17.30
2008,09,04,12,10,17.30
2008,09,04,12,11,17.30
2008,09,04,12,12,17.40
2008,09,04,12,13,17.40
2008,09,04,12,14,17.40
2008,09,04,12,15,17.40
2008,09,04,12,16,17.40
2008,09,04,12,17,17.40
2008,09,04,12,18,17.40
2008,09,04,12,19,17.40
2008,09,04,12,20,17.40
2008,09,04,12,21,17.40
2008,09,04,12,22,17.40
2008,09,04,12,23,17.50
2008,09,04,12,24,17.50
2008,09,04,12,25,17.50
2008,09,04,12,26,17.60
2008,09,04,12,27,17.60
2008,09,04,12,28,17.60
2008,09,04,12,29,17.60
2008,09,04,12,30,17.60
2008,09,04,12,31,17.60
2008,09,04,12,32,17.60
2008,09,04,12,33,17.70
2008,09,04,12,34,17.70
2008,09,04,12,35,17.70
2008,09,04,12,36,17.80
2008,09,04,12,37,17.90
2008,09,04,12,38,18.00
2008,09,04,12,39,18.10
2008,09,04,12,40,18.20
2008,09,04,12,41,18.30
2008,09,04,12,42,18.40
2008,09,04,12,43,18.40
2008,09,04,12,44,18.40
2008,09,04,12,45,18.40
2008,09,04,12,46,18.30
2008,09,04,12,47,18.30
2008,09,04,12,48,18.20
2008,09,04,12,49,18.10
2008,09,04,12,50,17.90
2008,09,04,12,51,17.80
2008,09,04,12,52,17.70
2008,09,04,12,53,17.70
2008,09,04,12,54,17.60
2008,09,04,12,55,17.60
2008,09,04,12,56,17.60
2008,09,04,12,57,17.60
2008,09,04,12,58,17.60
2008,09,04,12,59,17.60
2008,09,04,13,00,17.60
2008,09,04,13,01,17.60
2008,09,04,13,02,17.60
2008,09,04,13,03,17.50
2008,09,04,13,04,17.50
2008,09,04,13,05,17.60
2008,09,04,13,06,17.60
2008,09,04,13,07,17.60
2008,09,04,13,08,17.60
2008,09,04,13,09,17.70
2008,09,04,13,10,17.70
2008,09,04,13,11,17.70
2008,09,04,13,12,17.70
2008,09,04,13,13,17.70
2008,09,04,13,14,17.60
2008,09,04,13,15,17.60
2008,09,04,13,16,17.60
2008,09,04,13,17,17.50
2008,09,04,13,18,17.50
2008,09,04,13,19,17.50
2008,09,04,13,20,17.40
2008,09,04,13,21,17.50
2008,09,04,13,22,17.50
2008,09,04,13,23,17.50
2008,09,04,13,24,17.50
2008,09,04,13,25,17.60
2008,09,04,13,26,17.70
2008,09,04,13,27,17.70
2008,09,04,13,28,17.80
2008,09,04,13,29,17.80
2008,09,04,13,30,17.80
2008,09,04,13,31,17.80
2008,09,04,13,32,17.90
2008,09,04,13,33,17.90
2008,09,04,13,34,18.00
2008,09,04,13,35,18.10
2008,09,04,13,36,18.10
2008,09,04,13,37,18.20
2008,09,04,13,38,18.20
2008,09,04,13,39,18.20
2008,09,04,13,40,18.20
2008,09,04,13,41,18.20
2008,09,04,13,42,18.30
2008,09,04,13,43,18.40
2008,09,04,13,44,18.40
2008,09,04,13,45,18.40
2008,09,04,13,46,18.50
2008,09,04,13,47,18.60
2008,09,04,13,48,18.60
2008,09,04,13,49,18.60
2008,09,04,13,50,18.60
2008,09,04,13,51,18.60
2008,09,04,13,52,18.50
2008,09,04,13,53,18.50
2008,09,04,13,54,18.50
2008,09,04,13,55,18.50
2008,09,04,13,56,18.50
2008,09,04,13,57,18.40
2008,09,04,13,58,18.40
2008,09,04,13,59,18.40
2008,09,04,14,00,18.30
2008,09,04,14,01,18.30
2008,09,04,14,02,18.30
2008,09,04,14,03,18.30
2008,09,04,14,04,18.20
2008,09,04,14,05,18.20
2008,09,04,14,06,18.10
2008,09,04,14,07,18.10
2008,09,04,14,08,18.10
2008,09,04,14,09,18.10
2008,09,04,14,10,18.20
2008,09,04,14,11,18.30
2008,09,04,14,12,18.30
2008,09,04,14,13,18.40
2008,09,04,14,14,18.50
2008,09,04,14,15,18.60
2008,09,04,14,16,18.60
2008,09,04,14,17,18.60
2008,09,04,14,18,18.70
2008,09,04,14,19,18.70
2008,09,04,14,20,18.60
2008,09,04,14,21,18.60
2008,09,04,14,22,18.60
2008,09,04,14,23,18.60
2008,09,04,14,24,18.60
2008,09,04,14,25,18.70
2008,09,04,14,26,18.70
2008,09,04,14,27,18.70
2008,09,04,14,28,18.60
2008,09,04,14,29,18.60
2008,09,04,14,30,18.50
2008,09,04,14,31,18.40
2008,09,04,14,32,18.30
2008,09,04,14,33,18.20
2008,09,04,14,34,18.20
2008,09,04,14,35,18.10
2008,09,04,14,36,18.00
2008,09,04,14,37,17.90
2008,09,04,14,38,17.90
2008,09,04,14,39,17.80
2008,09,04,14,40,17.80
2008,09,04,14,41,17.70
2008,09,04,14,42,17.70
2008,09,04,14,43,17.70
2008,09,04,14,44,17.60
2008,09,04,14,45,17.60
2008,09,04,14,46,17.70
2008,09,04,14,47,17.70
2008,09,04,14,48,17.60
2008,09,04,14,49,17.50
2008,09,04,14,50,17.50
2008,09,04,14,51,17.50
2008,09,04,14,52,17.60
2008,09,04,14,53,17.60
2008,09,04,14,54,17.60
2008,09,04,14,55,17.60
2008,09,04,14,56,17.70
2008,09,04,14,57,17.70
2008,09,04,14,58,17.70
2008,09,04,14,59,17.70
2008,09,04,15,00,17.70
2008,09,04,15,01,17.80
2008,09,04,15,02,17.90
2008,09,04,15,03,18.00
2008,09,04,15,04,18.10
2008,09,04,15,05,18.20
2008,09,04,15,06,18.30
2008,09,04,15,07,18.40
2008,09,04,15,08,18.50
2008,09,04,15,09,18.60
2008,09,04,15,10,18.70
2008,09,04,15,11,18.80
2008,09,04,15,12,18.80
2008,09,04,15,13,18.90
2008,09,04,15,14,19.00
2008,09,04,15,15,19.00
2008,09,04,15,16,19.10
2008,09,04,15,17,19.20
2008,09,04,15,18,19.30
2008,09,04,15,19,19.40
2008,09,04,15,20,19.50
2008,09,04,15,21,19.70
2008,09,04,15,22,19.80
2008,09,04,15,23,20.00
2008,09,04,15,24,20.10
2008,09,04,15,25,20.30
2008,09,04,15,26,20.30
2008,09,04,15,27,20.30
2008,09,04,15,28,20.30
2008,09,04,15,29,20.30
2008,09,04,15,30,20.20
2008,09,04,15,31,20.20
2008,09,04,15,32,20.10
2008,09,04,15,33,20.00
2008,09,04,15,34,20.00
2008,09,04,15,35,20.00
2008,09,04,15,36,19.90
2008,09,04,15,37,19.90
2008,09,04,15,38,19.80
2008,09,04,15,39,19.80
2008,09,04,15,40,19.80
2008,09,04,15,41,19.80
2008,09,04,15,42,19.70
2008,09,04,15,43,19.70
2008,09,04,15,44,19.70
2008,09,04,15,45,19.70
2008,09,04,15,46,19.60
2008,09,04,15,47,19.70
2008,09,04,15,48,19.60
2008,09,04,15,49,19.60
2008,09,04,15,50,19.60
2008,09,04,15,51,19.60
2008,09,04,15,52,19.40
2008,09,04,15,53,19.40
2008,09,04,15,54,19.30
2008,09,04,15,55,19.20
2008,09,04,15,56,19.10
2008,09,04,15,57,19.00
2008,09,04,15,58,19.00
2008,09,04,15,59,18.90
2008,09,04,16,00,18.80
2008,09,04,16,01,18.80
2008,09,04,16,02,18.80
2008,09,04,16,03,18.80
2008,09,04,16,04,18.80
2008,09,04,16,05,18.90
2008,09,04,16,06,18.90
2008,09,04,16,07,19.00
2008,09,04,16,08,19.10
2008,09,04,16,09,19.20
2008,09,04,16,10,19.20
2008,09,04,16,11,19.20
2008,09,04,16,12,19.30
2008,09,04,16,13,19.40
2008,09,04,16,14,19.50
2008,09,04,16,15,19.40
2008,09,04,16,16,19.30
2008,09,04,16,17,19.20
2008,09,04,16,18,19.00
2008,09,04,16,19,18.80
2008,09,04,16,20,18.70
2008,09,04,16,21,18.60
2008,09,04,16,22,18.50
2008,09,04,16,23,18.40
2008,09,04,16,24,18.30
2008,09,04,16,25,18.30
2008,09,04,16,26,18.30
2008,09,04,16,27,18.40
2008,09,04,16,28,18.50
2008,09,04,16,29,18.60
2008,09,04,16,30,18.60
2008,09,04,16,31,18.70
2008,09,04,16,32,18.70
2008,09,04,16,33,18.70
2008,09,04,16,34,18.70
2008,09,04,16,35,18.70
2008,09,04,16,36,18.60
2008,09,04,16,37,18.60
2008,09,04,16,38,18.50
2008,09,04,16,39,18.50
2008,09,04,16,40,18.60
2008,09,04,16,41,18.70
2008,09,04,16,42,18.80
2008,09,04,16,43,19.00
2008,09,04,16,44,19.10
2008,09,04,16,45,19.30
2008,09,04,16,46,19.50
2008,09,04,16,47,19.60
2008,09,04,16,48,19.70
2008,09,04,16,49,19.80
2008,09,04,16,50,19.80
2008,09,04,16,51,19.90
2008,09,04,16,52,19.90
2008,09,04,16,53,20.00
2008,09,04,16,54,20.00
2008,09,04,16,55,20.00
2008,09,04,16,56,20.10
2008,09,04,16,57,20.10
2008,09,04,16,58,20.20
2008,09,04,16,59,20.30
2008,09,04,17,00,20.50
2008,09,04,17,01,20.60
2008,09,04,17,02,20.70
2008,09,04,17,03,20.70
2008,09,04,17,04,20.70
2008,09,04,17,05,20.70
2008,09,04,17,06,20.70
2008,09,04,17,07,20.70
2008,09,04,17,08,20.70
2008,09,04,17,09,20.80
2008,09,04,17,10,20.70
2008,09,04,17,11,20.70
2008,09,04,17,12,20.70
2008,09,04,17,13,20.60
2008,09,04,17,14,20.60
2008,09,04,17,15,20.60
2008,09,04,17,16,20.50
2008,09,04,17,17,20.40
2008,09,04,17,18,20.40
2008,09,04,17,19,20.30